BAW8RM EDDB-EGLL

Flight info

Callsign BAW8RM
Flight time 1h 32m
Altitude 36000
Route SUKIP3Q/06R SUKIP Y206 BUREL P203 HLZ L980 ROBEG DCT ABNED L980 LOGAN LOGAN2H
Aircraft A320/M-SDE3FGIJ1KRWXY/SB1

Departure

Time 2026-05-05 13:11
Airport Berlin Brandenburg Airport (EDDB)

Arrival

Time 2026-05-05 14:43
Airport London Heathrow Airport (EGLL)
Time Latitude Longitude Altitude Speed Heading
2026-05-05 12:20 52.36320 13.50630 155 ft 0 kts 69°
2026-05-05 12:31 52.36320 13.50629 155 ft 0 kts 69°
2026-05-05 12:58 52.36312 13.50597 182 ft 4 kts 69°
2026-05-05 12:58 52.36304 13.50565 154 ft 4 kts 68°
2026-05-05 12:58 52.36294 13.50524 154 ft 4 kts 69°
2026-05-05 12:58 52.36285 13.50485 154 ft 4 kts 74°
2026-05-05 12:59 52.36283 13.50444 154 ft 4 kts 110°
2026-05-05 12:59 52.36298 13.50411 154 ft 4 kts 147°
2026-05-05 12:59 52.36321 13.50392 154 ft 4 kts 162°
2026-05-05 13:00 52.36355 13.50375 154 ft 0 kts 159°
2026-05-05 13:02 52.36350 13.50379 154 ft 4 kts 159°
2026-05-05 13:02 52.36303 13.50408 154 ft 9 kts 159°
2026-05-05 13:02 52.36244 13.50446 154 ft 10 kts 159°
2026-05-05 13:03 52.36177 13.50488 154 ft 11 kts 159°
2026-05-05 13:03 52.36102 13.50535 154 ft 12 kts 159°
2026-05-05 13:03 52.36019 13.50588 154 ft 13 kts 159°
2026-05-05 13:03 52.35930 13.50642 154 ft 14 kts 163°
2026-05-05 13:04 52.35866 13.50636 154 ft 14 kts 192°
2026-05-05 13:04 52.35770 13.50668 154 ft 15 kts 158°
2026-05-05 13:04 52.35669 13.50591 154 ft 15 kts 248°
2026-05-05 13:04 52.35632 13.50436 154 ft 15 kts 249°
2026-05-05 13:05 52.35606 13.50325 154 ft 16 kts 248°
2026-05-05 13:05 52.35565 13.50156 154 ft 16 kts 249°
2026-05-05 13:05 52.35524 13.49981 154 ft 17 kts 249°
2026-05-05 13:05 52.35482 13.49803 154 ft 17 kts 248°
2026-05-05 13:06 52.35438 13.49617 154 ft 18 kts 249°
2026-05-05 13:06 52.35391 13.49421 154 ft 19 kts 248°
2026-05-05 13:06 52.35342 13.49214 154 ft 20 kts 249°
2026-05-05 13:06 52.35289 13.48991 154 ft 22 kts 249°
2026-05-05 13:07 52.35234 13.48760 154 ft 21 kts 249°
2026-05-05 13:07 52.35188 13.48568 154 ft 18 kts 248°
2026-05-05 13:07 52.35140 13.48365 156 ft 20 kts 248°
2026-05-05 13:07 52.35086 13.48142 154 ft 22 kts 249°
2026-05-05 13:08 52.35030 13.47899 154 ft 24 kts 249°
2026-05-05 13:08 52.34976 13.47675 154 ft 20 kts 248°
2026-05-05 13:08 52.34924 13.47458 154 ft 21 kts 249°
2026-05-05 13:08 52.34872 13.47241 154 ft 15 kts 249°
2026-05-05 13:09 52.34832 13.47073 154 ft 17 kts 248°
2026-05-05 13:09 52.34790 13.46889 154 ft 18 kts 249°
2026-05-05 13:09 52.34741 13.46687 154 ft 14 kts 247°
2026-05-05 13:09 52.34656 13.46648 154 ft 15 kts 152°
2026-05-05 13:10 52.34594 13.46797 154 ft 17 kts 114°
2026-05-05 13:10 52.34578 13.46988 154 ft 18 kts 70°
2026-05-05 13:10 52.34660 13.47341 154 ft 62 kts 69°
2026-05-05 13:10 52.34890 13.48306 154 ft 117 kts 69°
2026-05-05 13:11 52.35241 13.49780 158 ft 159 kts 68°
2026-05-05 13:11 52.35665 13.51500 600 ft 164 kts 69°
2026-05-05 13:11 52.35709 13.53335 1133 ft 169 kts 116°
2026-05-05 13:11 52.34960 13.54903 1535 ft 185 kts 135°
2026-05-05 13:12 52.33845 13.56107 1871 ft 203 kts 168°
2026-05-05 13:12 52.32469 13.55808 2437 ft 210 kts 209°
2026-05-05 13:12 52.31232 13.54328 2790 ft 231 kts 220°
2026-05-05 13:12 52.29929 13.52596 3257 ft 251 kts 220°
2026-05-05 13:13 52.28532 13.50724 3803 ft 268 kts 220°
2026-05-05 13:13 52.27170 13.48702 4777 ft 264 kts 232°
2026-05-05 13:13 52.26386 13.46026 5663 ft 263 kts 259°
2026-05-05 13:13 52.26324 13.43027 6470 ft 268 kts 272°
2026-05-05 13:14 52.26395 13.39951 7177 ft 274 kts 271°
2026-05-05 13:14 52.26441 13.36823 8054 ft 274 kts 272°
2026-05-05 13:14 52.26576 13.33724 9033 ft 273 kts 274°
2026-05-05 13:14 52.26759 13.30623 9821 ft 277 kts 275°
2026-05-05 13:15 52.26953 13.27433 10259 ft 292 kts 274°
2026-05-05 13:15 52.27147 13.24050 10428 ft 315 kts 274°
2026-05-05 13:15 52.27343 13.20393 10748 ft 329 kts 274°
2026-05-05 13:15 52.27531 13.16634 11344 ft 334 kts 273°
2026-05-05 13:16 52.27714 13.12837 11999 ft 337 kts 273°
2026-05-05 13:16 52.27895 13.09009 12645 ft 340 kts 272°
2026-05-05 13:16 52.28074 13.05142 13293 ft 343 kts 272°
2026-05-05 13:16 52.28252 13.01233 13906 ft 346 kts 272°
2026-05-05 13:17 52.28431 12.97305 14497 ft 348 kts 272°
2026-05-05 13:17 52.28612 12.93347 15081 ft 351 kts 272°
2026-05-05 13:17 52.28794 12.89357 15625 ft 354 kts 272°
2026-05-05 13:17 52.28973 12.85339 16180 ft 356 kts 272°
2026-05-05 13:18 52.29153 12.81293 16740 ft 358 kts 272°
2026-05-05 13:18 52.29332 12.77220 17307 ft 361 kts 272°
2026-05-05 13:18 52.29509 12.73123 17876 ft 363 kts 272°
2026-05-05 13:18 52.29684 12.68996 18416 ft 366 kts 272°
2026-05-05 13:19 52.29862 12.64836 18925 ft 368 kts 272°
2026-05-05 13:19 52.30040 12.60653 19426 ft 371 kts 272°
2026-05-05 13:19 52.30216 12.56483 19921 ft 373 kts 272°
2026-05-05 13:19 52.30394 12.52240 20414 ft 376 kts 271°
2026-05-05 13:20 52.30570 12.47967 20877 ft 378 kts 271°
2026-05-05 13:20 52.30744 12.43663 21334 ft 381 kts 271°
2026-05-05 13:20 52.30917 12.39327 21755 ft 384 kts 271°
2026-05-05 13:20 52.31094 12.34960 22188 ft 386 kts 271°
2026-05-05 13:21 52.31272 12.30562 22625 ft 389 kts 271°
2026-05-05 13:21 52.31449 12.26140 23058 ft 391 kts 271°
2026-05-05 13:21 52.31626 12.21692 23484 ft 394 kts 271°
2026-05-05 13:21 52.31804 12.17217 23859 ft 395 kts 271°
2026-05-05 13:22 52.31979 12.12783 24245 ft 397 kts 271°
2026-05-05 13:22 52.32153 12.08279 24640 ft 398 kts 271°
2026-05-05 13:22 52.32324 12.03754 25032 ft 399 kts 270°
2026-05-05 13:22 52.32493 11.99219 25409 ft 401 kts 270°
2026-05-05 13:23 52.32660 11.94669 25800 ft 402 kts 271°
2026-05-05 13:23 52.32825 11.90110 26195 ft 402 kts 270°
2026-05-05 13:23 52.32990 11.85542 26571 ft 403 kts 270°
2026-05-05 13:23 52.33156 11.80962 26945 ft 404 kts 270°
2026-05-05 13:24 52.33320 11.76363 27318 ft 406 kts 270°
2026-05-05 13:24 52.33485 11.71744 27688 ft 407 kts 270°
2026-05-05 13:24 52.33647 11.67118 28054 ft 409 kts 270°
2026-05-05 13:24 52.33806 11.62474 28409 ft 410 kts 270°
2026-05-05 13:25 52.33962 11.57817 28833 ft 409 kts 270°
2026-05-05 13:25 52.34115 11.53182 29355 ft 407 kts 270°
2026-05-05 13:25 52.34267 11.48575 29873 ft 405 kts 270°
2026-05-05 13:25 52.34420 11.43993 30340 ft 403 kts 270°
2026-05-05 13:26 52.34570 11.39428 30767 ft 401 kts 269°
2026-05-05 13:26 52.34716 11.34890 31210 ft 399 kts 269°
2026-05-05 13:26 52.34856 11.30374 31657 ft 397 kts 269°
2026-05-05 13:26 52.34994 11.25876 32109 ft 395 kts 269°
2026-05-05 13:27 52.35131 11.21410 32563 ft 393 kts 269°
2026-05-05 13:27 52.35269 11.16958 33011 ft 391 kts 269°
2026-05-05 13:27 52.35406 11.12532 33473 ft 389 kts 269°
2026-05-05 13:27 52.35541 11.08129 33917 ft 387 kts 269°
2026-05-05 13:28 52.35674 11.03739 34256 ft 386 kts 269°
2026-05-05 13:28 52.35800 10.99347 34545 ft 386 kts 269°
2026-05-05 13:28 52.35920 10.95014 34807 ft 387 kts 269°
2026-05-05 13:28 52.36038 10.90606 35032 ft 389 kts 269°
2026-05-05 13:29 52.36156 10.86183 35269 ft 389 kts 269°
2026-05-05 13:29 52.36266 10.81752 35523 ft 390 kts 267°
2026-05-05 13:29 52.36093 10.77350 35756 ft 388 kts 259°
2026-05-05 13:29 52.35588 10.73015 35872 ft 390 kts 257°
2026-05-05 13:30 52.34489 10.64201 35893 ft 400 kts 257°
2026-05-05 13:30 52.33408 10.55261 35893 ft 401 kts 257°
2026-05-05 13:31 52.32323 10.46303 35894 ft 402 kts 257°
2026-05-05 13:31 52.31224 10.37331 35890 ft 403 kts 257°
2026-05-05 13:32 52.30113 10.28347 35879 ft 403 kts 256°
2026-05-05 13:32 52.28996 10.19370 35892 ft 404 kts 256°
2026-05-05 13:33 52.27865 10.10381 35902 ft 404 kts 256°
2026-05-05 13:33 52.26725 10.01409 35910 ft 404 kts 256°
2026-05-05 13:34 52.25582 9.92429 35915 ft 404 kts 256°
2026-05-05 13:34 52.24942 9.83311 35925 ft 407 kts 265°
2026-05-05 13:35 52.24717 9.74077 35916 ft 408 kts 265°
2026-05-05 13:35 52.24466 9.64834 35918 ft 408 kts 265°
2026-05-05 13:36 52.24209 9.55580 35902 ft 408 kts 265°
2026-05-05 13:36 52.23944 9.46317 35907 ft 409 kts 264°
2026-05-05 13:37 52.23667 9.37054 35909 ft 409 kts 264°
2026-05-05 13:37 52.23381 9.27786 35910 ft 409 kts 264°
2026-05-05 13:38 52.23064 9.18527 35911 ft 409 kts 264°
2026-05-05 13:38 52.22710 9.09329 35912 ft 409 kts 264°
2026-05-05 13:39 52.22342 9.00070 35913 ft 409 kts 264°
2026-05-05 13:39 52.21979 8.90809 35913 ft 409 kts 264°
2026-05-05 13:40 52.21609 8.81551 35920 ft 409 kts 264°
2026-05-05 13:40 52.21222 8.72281 35915 ft 410 kts 264°
2026-05-05 13:41 52.20834 8.63009 35911 ft 410 kts 264°
2026-05-05 13:41 52.20443 8.53726 35905 ft 410 kts 263°
2026-05-05 13:42 52.20038 8.44447 35914 ft 410 kts 263°
2026-05-05 13:42 52.19624 8.35177 35932 ft 410 kts 263°
2026-05-05 13:43 52.19206 8.25892 35924 ft 411 kts 263°
2026-05-05 13:43 52.18781 8.16598 35919 ft 412 kts 263°
2026-05-05 13:44 52.18343 8.07295 35924 ft 412 kts 263°
2026-05-05 13:44 52.17907 7.98053 35927 ft 412 kts 263°
2026-05-05 13:45 52.17460 7.88743 35945 ft 412 kts 263°
2026-05-05 13:45 52.16998 7.79441 35942 ft 412 kts 263°
2026-05-05 13:46 52.16532 7.70141 35938 ft 412 kts 263°
2026-05-05 13:46 52.16064 7.60849 35936 ft 412 kts 263°
2026-05-05 13:47 52.15590 7.51558 35933 ft 412 kts 263°
2026-05-05 13:47 52.15108 7.42268 35921 ft 412 kts 262°
2026-05-05 13:48 52.14617 7.32974 35919 ft 412 kts 262°
2026-05-05 13:48 52.14116 7.23676 35917 ft 413 kts 262°
2026-05-05 13:49 52.13605 7.14373 35915 ft 413 kts 262°
2026-05-05 13:49 52.13093 7.05059 35916 ft 413 kts 262°
2026-05-05 13:50 52.12570 6.95763 35916 ft 413 kts 262°
2026-05-05 13:50 52.12035 6.86457 35918 ft 413 kts 261°
2026-05-05 13:51 52.11493 6.77149 35902 ft 414 kts 261°
2026-05-05 13:51 52.10951 6.67807 35902 ft 415 kts 261°
2026-05-05 13:52 52.10395 6.58459 35908 ft 416 kts 261°
2026-05-05 13:52 52.09826 6.49103 35890 ft 416 kts 261°
2026-05-05 13:53 52.09259 6.39792 35896 ft 417 kts 261°
2026-05-05 13:53 52.08693 6.30396 35900 ft 418 kts 261°
2026-05-05 13:54 52.08111 6.20985 35903 ft 419 kts 261°
2026-05-05 13:54 52.07504 6.11558 35910 ft 420 kts 261°
2026-05-05 13:55 52.06994 6.03711 35915 ft 420 kts 261°
2026-05-05 13:55 52.06374 5.94270 35920 ft 420 kts 261°
2026-05-05 13:56 52.05753 5.84823 35937 ft 421 kts 261°
2026-05-05 13:56 52.05125 5.75369 35934 ft 421 kts 261°
2026-05-05 13:57 52.04486 5.65910 35929 ft 421 kts 261°
2026-05-05 13:57 52.03831 5.56462 35916 ft 421 kts 261°
2026-05-05 13:58 52.03181 5.47006 35919 ft 421 kts 261°
2026-05-05 13:58 52.02531 5.37554 35931 ft 421 kts 260°
2026-05-05 13:59 52.01529 5.23370 35923 ft 422 kts 260°
2026-05-05 14:00 52.00493 5.09169 35928 ft 422 kts 260°
2026-05-05 14:00 51.99797 4.99700 35928 ft 422 kts 260°
2026-05-05 14:01 51.99107 4.90310 35921 ft 422 kts 260°
2026-05-05 14:01 51.98408 4.80844 35922 ft 423 kts 260°
2026-05-05 14:02 51.97689 4.71363 35919 ft 424 kts 260°
2026-05-05 14:02 51.96958 4.61875 35929 ft 424 kts 260°
2026-05-05 14:03 51.96224 4.52382 35931 ft 424 kts 260°
2026-05-05 14:03 51.95505 4.43102 35919 ft 425 kts 259°
2026-05-05 14:04 51.94755 4.33598 35916 ft 426 kts 259°
2026-05-05 14:04 51.93991 4.24083 35916 ft 426 kts 259°
2026-05-05 14:05 51.93225 4.14566 35916 ft 426 kts 259°
2026-05-05 14:05 51.92459 4.05047 35918 ft 426 kts 259°
2026-05-05 14:06 51.91677 3.95526 35921 ft 427 kts 259°
2026-05-05 14:06 51.90880 3.86004 35940 ft 427 kts 259°
2026-05-05 14:07 51.90086 3.76524 35928 ft 428 kts 259°
2026-05-05 14:07 51.89280 3.66971 35929 ft 429 kts 259°
2026-05-05 14:08 51.88460 3.57398 35934 ft 429 kts 259°
2026-05-05 14:08 51.87623 3.47833 35943 ft 429 kts 259°
2026-05-05 14:09 51.86786 3.38260 35957 ft 430 kts 259°
2026-05-05 14:09 51.85940 3.28681 35953 ft 430 kts 259°
2026-05-05 14:10 51.85087 3.19105 35944 ft 430 kts 259°
2026-05-05 14:10 51.84328 3.09500 35946 ft 431 kts 262°
2026-05-05 14:11 51.83744 2.99847 35950 ft 431 kts 262°
2026-05-05 14:11 51.83164 2.90179 35731 ft 432 kts 262°
2026-05-05 14:12 51.82854 2.85357 35473 ft 431 kts 262°
2026-05-05 14:12 51.82532 2.80544 35227 ft 431 kts 262°
2026-05-05 14:12 51.82203 2.75732 34981 ft 431 kts 262°
2026-05-05 14:12 51.81869 2.70914 34739 ft 431 kts 261°
2026-05-05 14:13 51.81539 2.66108 34498 ft 431 kts 261°
2026-05-05 14:13 51.81210 2.61298 34258 ft 431 kts 261°
2026-05-05 14:13 51.80880 2.56489 34023 ft 431 kts 261°
2026-05-05 14:13 51.80553 2.51747 33765 ft 431 kts 261°
2026-05-05 14:14 51.80219 2.46942 33479 ft 431 kts 261°
2026-05-05 14:14 51.79877 2.42121 33228 ft 432 kts 261°
2026-05-05 14:14 51.79534 2.37309 32955 ft 431 kts 261°
2026-05-05 14:14 51.79187 2.32496 32687 ft 431 kts 261°
2026-05-05 14:15 51.78836 2.27683 32420 ft 432 kts 261°
2026-05-05 14:15 51.78486 2.22859 31844 ft 434 kts 261°
2026-05-05 14:15 51.78156 2.18014 31308 ft 431 kts 262°
2026-05-05 14:15 51.77869 2.13220 30792 ft 427 kts 262°
2026-05-05 14:16 51.77607 2.08459 30264 ft 425 kts 262°
2026-05-05 14:16 51.77351 2.03724 29690 ft 422 kts 263°
2026-05-05 14:16 51.77090 1.99034 29158 ft 417 kts 263°
2026-05-05 14:16 51.76821 1.94397 28633 ft 413 kts 262°
2026-05-05 14:17 51.76545 1.89817 28129 ft 409 kts 262°
2026-05-05 14:17 51.76268 1.85272 27619 ft 405 kts 262°
2026-05-05 14:17 51.75992 1.80767 27112 ft 402 kts 262°
2026-05-05 14:17 51.75716 1.76303 26617 ft 399 kts 262°
2026-05-05 14:18 51.75438 1.71864 26126 ft 396 kts 261°
2026-05-05 14:18 51.75158 1.67457 25641 ft 394 kts 262°
2026-05-05 14:18 51.74877 1.63068 25169 ft 392 kts 262°
2026-05-05 14:18 51.74597 1.58690 24644 ft 393 kts 262°
2026-05-05 14:19 51.74317 1.54333 24044 ft 398 kts 262°
2026-05-05 14:19 51.74030 1.49872 23428 ft 400 kts 262°
2026-05-05 14:19 51.73740 1.45344 22766 ft 401 kts 261°
2026-05-05 14:19 51.73454 1.40880 22175 ft 399 kts 263°
2026-05-05 14:20 51.73172 1.36487 21583 ft 399 kts 262°
2026-05-05 14:20 51.72884 1.32048 20987 ft 398 kts 262°
2026-05-05 14:20 51.72590 1.27617 20391 ft 397 kts 263°
2026-05-05 14:20 51.72294 1.23187 19799 ft 397 kts 263°
2026-05-05 14:21 51.72000 1.18775 19208 ft 396 kts 263°
2026-05-05 14:21 51.71704 1.14358 18612 ft 395 kts 263°
2026-05-05 14:21 51.71409 1.09952 17975 ft 395 kts 263°
2026-05-05 14:21 51.71113 1.05574 17447 ft 391 kts 263°
2026-05-05 14:22 51.70816 1.01230 16911 ft 387 kts 263°
2026-05-05 14:22 51.70520 0.96932 16238 ft 387 kts 263°
2026-05-05 14:22 51.70225 0.92666 15757 ft 381 kts 264°
2026-05-05 14:22 51.69933 0.88439 15149 ft 379 kts 264°
2026-05-05 14:23 51.69638 0.84232 14673 ft 374 kts 264°
2026-05-05 14:23 51.69348 0.80087 14154 ft 371 kts 264°
2026-05-05 14:23 51.69057 0.75967 13583 ft 369 kts 264°
2026-05-05 14:23 51.68767 0.71871 13002 ft 366 kts 264°
2026-05-05 14:24 51.68478 0.67810 12454 ft 363 kts 264°
2026-05-05 14:24 51.68193 0.63799 11922 ft 359 kts 264°
2026-05-05 14:24 51.67907 0.59830 11551 ft 351 kts 264°
2026-05-05 14:24 51.67626 0.56009 11427 ft 337 kts 264°
2026-05-05 14:25 51.67354 0.52331 11301 ft 324 kts 264°
2026-05-05 14:25 51.67095 0.48787 11175 ft 314 kts 264°
2026-05-05 14:25 51.66847 0.45353 11035 ft 304 kts 264°
2026-05-05 14:25 51.66608 0.42004 10774 ft 300 kts 264°
2026-05-05 14:26 51.66371 0.38689 10419 ft 295 kts 264°
2026-05-05 14:26 51.66135 0.35459 10132 ft 282 kts 264°
2026-05-05 14:26 51.65910 0.32405 9996 ft 271 kts 264°
2026-05-05 14:26 51.65690 0.29428 9844 ft 264 kts 264°
2026-05-05 14:27 51.65475 0.26529 9692 ft 258 kts 264°
2026-05-05 14:27 51.65260 0.23662 9229 ft 262 kts 264°
2026-05-05 14:27 51.65037 0.20712 8480 ft 269 kts 264°
2026-05-05 14:27 51.64808 0.17694 7746 ft 275 kts 264°
2026-05-05 14:28 51.64575 0.14611 7093 ft 277 kts 265°
2026-05-05 14:28 51.64378 0.11599 6862 ft 263 kts 265°
2026-05-05 14:28 51.64218 0.08765 6743 ft 247 kts 266°
2026-05-05 14:28 51.64074 0.06009 6643 ft 247 kts 267°
2026-05-05 14:29 51.63933 0.03266 6540 ft 246 kts 267°
2026-05-05 14:29 51.63790 0.00529 6446 ft 245 kts 267°
2026-05-05 14:29 51.63644 -0.02190 6365 ft 243 kts 268°
2026-05-05 14:29 51.63504 -0.04723 6289 ft 244 kts 266°
2026-05-05 14:30 51.63352 -0.07437 6211 ft 243 kts 266°
2026-05-05 14:30 51.63197 -0.10143 6112 ft 242 kts 265°
2026-05-05 14:30 51.63042 -0.12842 6017 ft 242 kts 267°
2026-05-05 14:30 51.62889 -0.15509 5917 ft 242 kts 266°
2026-05-05 14:31 51.62732 -0.18246 5828 ft 243 kts 265°
2026-05-05 14:31 51.62577 -0.20949 5760 ft 243 kts 266°
2026-05-05 14:31 51.62421 -0.23662 5662 ft 244 kts 266°
2026-05-05 14:31 51.62265 -0.26369 5566 ft 242 kts 265°
2026-05-05 14:32 51.62110 -0.29025 5472 ft 241 kts 268°
2026-05-05 14:32 51.61954 -0.31719 5375 ft 242 kts 266°
2026-05-05 14:32 51.61796 -0.34433 5192 ft 240 kts 266°
2026-05-05 14:32 51.61640 -0.37072 5101 ft 241 kts 266°
2026-05-05 14:33 51.61479 -0.39787 5003 ft 241 kts 267°
2026-05-05 14:33 51.61320 -0.42472 4904 ft 241 kts 266°
2026-05-05 14:33 51.61162 -0.45151 4808 ft 241 kts 266°
2026-05-05 14:33 51.61002 -0.47837 4714 ft 240 kts 266°
2026-05-05 14:34 51.60841 -0.50510 4614 ft 241 kts 266°
2026-05-05 14:34 51.60678 -0.53195 4516 ft 240 kts 266°
2026-05-05 14:34 51.60513 -0.55864 4422 ft 241 kts 267°
2026-05-05 14:34 51.60348 -0.58549 4325 ft 240 kts 266°
2026-05-05 14:35 51.60183 -0.61214 4229 ft 239 kts 265°
2026-05-05 14:35 51.60021 -0.63863 4133 ft 238 kts 266°
2026-05-05 14:35 51.59862 -0.66522 4040 ft 239 kts 267°
2026-05-05 14:35 51.59704 -0.69187 3948 ft 238 kts 266°
2026-05-05 14:36 51.59543 -0.71831 3857 ft 238 kts 267°
2026-05-05 14:36 51.59382 -0.74488 3759 ft 239 kts 266°
2026-05-05 14:36 51.59017 -0.77049 3670 ft 234 kts 243°
2026-05-05 14:36 51.57955 -0.78919 3590 ft 225 kts 210°
2026-05-05 14:37 51.56499 -0.79638 3535 ft 219 kts 180°
2026-05-05 14:37 51.54987 -0.79572 3447 ft 216 kts 176°
2026-05-05 14:37 51.53544 -0.79492 3377 ft 205 kts 176°
2026-05-05 14:37 51.52139 -0.79416 3321 ft 200 kts 175°
2026-05-05 14:38 51.50763 -0.79340 3233 ft 196 kts 176°
2026-05-05 14:38 51.49392 -0.79261 3172 ft 198 kts 174°
2026-05-05 14:38 51.48163 -0.78533 3094 ft 182 kts 132°
2026-05-05 14:38 51.47616 -0.76872 3056 ft 164 kts 94°
2026-05-05 14:39 51.47606 -0.75057 3009 ft 162 kts 85°
2026-05-05 14:39 51.47619 -0.73248 2862 ft 162 kts 85°
2026-05-05 14:39 51.47631 -0.71459 2725 ft 159 kts 85°
2026-05-05 14:39 51.47642 -0.69675 2655 ft 161 kts 84°
2026-05-05 14:40 51.47653 -0.67877 2486 ft 162 kts 86°
2026-05-05 14:40 51.47663 -0.66065 2291 ft 162 kts 86°
2026-05-05 14:40 51.47677 -0.64265 2065 ft 161 kts 86°
2026-05-05 14:40 51.47685 -0.62483 1812 ft 160 kts 85°
2026-05-05 14:41 51.47696 -0.60704 1679 ft 160 kts 86°
2026-05-05 14:41 51.47706 -0.58927 1457 ft 159 kts 85°
2026-05-05 14:41 51.47715 -0.57149 1198 ft 158 kts 85°
2026-05-05 14:41 51.47718 -0.55481 974 ft 144 kts 86°
2026-05-05 14:42 51.47721 -0.53910 786 ft 140 kts 85°
2026-05-05 14:42 51.47733 -0.52368 598 ft 138 kts 87°
2026-05-05 14:42 51.47745 -0.50834 411 ft 139 kts 86°
2026-05-05 14:42 51.47747 -0.49756 287 ft 140 kts 87°
2026-05-05 14:43 51.47751 -0.48185 113 ft 140 kts 85°
2026-05-05 14:43 51.47758 -0.46786 92 ft 107 kts 90°
2026-05-05 14:43 51.47763 -0.45870 84 ft 57 kts 89°
2026-05-05 14:43 51.47756 -0.45544 88 ft 17 kts 104°
2026-05-05 14:44 51.47682 -0.45468 86 ft 14 kts 179°
2026-05-05 14:44 51.47665 -0.45467 86 ft 0 kts 179°
2026-05-05 14:44 51.47659 -0.45467 86 ft 3 kts 179°
2026-05-05 14:45 51.47629 -0.45467 86 ft 5 kts 179°
2026-05-05 14:45 51.47582 -0.45465 86 ft 8 kts 180°
2026-05-05 14:45 51.47524 -0.45490 87 ft 10 kts 222°
2026-05-05 14:45 51.47509 -0.45607 90 ft 12 kts 272°
2026-05-05 14:46 51.47515 -0.45758 88 ft 15 kts 276°
2026-05-05 14:46 51.47518 -0.45939 86 ft 17 kts 272°
2026-05-05 14:46 51.47517 -0.46103 86 ft 15 kts 269°
2026-05-05 14:46 51.47516 -0.46287 86 ft 18 kts 269°
2026-05-05 14:47 51.47515 -0.46462 86 ft 12 kts 268°
2026-05-05 14:47 51.47515 -0.46609 86 ft 14 kts 271°
2026-05-05 14:47 51.47499 -0.46766 87 ft 12 kts 253°
2026-05-05 14:47 51.47494 -0.46911 86 ft 14 kts 268°
2026-05-05 14:48 51.47492 -0.47087 86 ft 17 kts 269°
2026-05-05 14:48 51.47492 -0.47292 86 ft 20 kts 269°
2026-05-05 14:48 51.47491 -0.47517 86 ft 21 kts 270°
2026-05-05 14:48 51.47490 -0.47752 86 ft 22 kts 270°
2026-05-05 14:49 51.47489 -0.47957 86 ft 19 kts 269°
2026-05-05 14:49 51.47489 -0.48172 86 ft 20 kts 269°
2026-05-05 14:49 51.47488 -0.48384 86 ft 18 kts 269°
2026-05-05 14:49 51.47427 -0.48477 86 ft 14 kts 181°
2026-05-05 14:50 51.47332 -0.48473 86 ft 14 kts 180°
2026-05-05 14:50 51.47234 -0.48473 86 ft 14 kts 179°
2026-05-05 14:50 51.47136 -0.48472 86 ft 14 kts 180°
2026-05-05 14:50 51.47034 -0.48471 89 ft 15 kts 180°
2026-05-05 14:51 51.46930 -0.48470 86 ft 15 kts 179°
2026-05-05 14:51 51.46877 -0.48582 86 ft 15 kts 270°
2026-05-05 14:51 51.46876 -0.48753 86 ft 16 kts 269°
2026-05-05 14:51 51.46876 -0.48832 86 ft 3 kts 274°
2026-05-05 14:52 51.46893 -0.48855 88 ft 4 kts 338°
2026-05-05 14:52 51.46921 -0.48859 89 ft 5 kts 359°
2026-05-05 14:52 51.46930 -0.48859 88 ft 0 kts 359°